Location: *
(60.1759°S, 155.0663°W)
Time: 06:48:32
(UTC+00:00)

Cosmos 2219 Rocket - Pass Details

Date: 17 September 2019
Orbit: 829 x 845 km, 71.0° (Epoch: 17 October)

Event Time Altitude Azimuth Distance (km) Brightness Sun altitude
Rises 14:28:23 0° 233° (SW) 3,445 5.1 -14.8°
Reaches altitude 10° 14:31:05 10° 224° (SW) 2,509 4.4 -14.5°
Maximum altitude 14:36:21 35° 158° (SSE) 1,367 3.7 -13.9°
Drops below altitude 10° 14:41:36 10° 92° (E) 2,498 5.9 -13.3°
Sets 14:44:17 0° 83° (E) 3,429 6.6 -13.0°
